Wind_Speed
17 17 17 15 13 14 14 15 17 19 20 22 24 27 30 31 31 33 34 35 37 38 40 41 41 39 37 35 31 29 28 27 27 28 26 24 22 24 28 27 31 35 39 40
16 17 16 15 15 17 18 19 21 23 25 26 29 32 33 36 38 37 37 38 39 38 39 37 34 30 31 27 25 28 31 25 20 18 21 20 24 22 24 26 30 34 36 37
15 15 17 18 19 20 21 23 25 27 29 31 34 35 37 39 37 36 37 33 26 24 26 28 29 26 20 19 20 20 20 20 19 19 22 24 20 22 23 25 27 30 31 34
14 16 18 19 21 23 26 27 30 32 31 33 36 34 26 26 33 35 17 20 23 24 23 21 21 20 18 20 15 15 17 17 16 17 17 18 22 23 23 24 25 27 31 32
15 18 20 22 25 26 29 31 34 33 31 33 29 26 28 33 24 24 21 24 24 22 22 22 21 20 19 15 17 16 15 12 12 15 18 19 21 24 23 20 22 25 28 27
17 21 24 25 28 30 30 24 24 21 19 22 25 25 23 20 20 21 19 19 23 24 23 19 16 18 15 6 10 14 12 13 14 12 13 18 18 20 21 21 23 26 27 26
19 23 26 28 30 29 25 22 25 26 22 21 18 17 17 18 20 22 19 16 17 17 16 15 12 10 9 8 10 13 11 12 20 22 22 24 26 27 27 28 28 30 33 35
21 24 28 29 30 27 22 24 24 19 16 14 15 18 18 16 14 13 13 12 12 13 15 16 15 11 7 6 5 18 26 25 26 27 26 25 27 28 29 30 31 33 37 38
21 25 29 30 27 24 24 22 15 12 14 15 14 12 12 13 15 15 15 17 19 19 17 14 17 28 30 28 29 26 26 25 25 25 25 25 24 26 28 29 29 31 34 36
23 27 28 26 25 26 15 12 10 11 13 16 16 17 17 20 22 23 23 22 24 30 32 31 31 33 32 30 27 23 22 20 22 22 21 20 20 23 25 26 26 29 32 34
25 26 23 26 17 13 9 12 15 17 16 18 22 23 23 24 24 28 33 35 38 37 35 34 33 33 31 29 26 23 21 20 19 19 19 19 20 21 22 23 25 28 30 32
22 23 19 12 9 15 18 20 20 20 23 24 22 24 25 31 39 39 39 39 39 39 38 37 35 33 31 30 28 27 26 26 25 22 19 18 19 20 21 23 25 29 32 35
22 16 11 14 24 23 23 24 25 27 27 28 28 37 42 42 42 43 41 39 38 37 36 35 34 34 34 30 29 29 29 29 28 28 27 27 26 26 25 27 29 31 34 35
12 14 18 27 26 24 26 25 26 28 33 40 43 42 44 44 42 41 39 38 38 38 39 38 36 34 35 36 32 34 33 34 34 34 33 33 31 30 29 30 32 33 35 36
15 24 24 25 27 25 24 25 35 44 41 41 44 45 42 40 39 39 39 39 40 40 39 39 37 35 34 36 38 34 37 37 36 35 35 34 33 32 32 33 35 36 37 38
25 29 28 28 26 28 38 44 41 39 39 44 43 40 38 37 37 36 36 36 36 37 38 39 39 40 38 37 35 38 37 36 37 38 38 37 36 36 36 36 37 37 38 41
37 39 37 38 40 42 37 36 35 41 42 40 39 36 34 35 35 35 35 36 36 36 38 40 42 41 39 39 38 38 39 40 37 39 39 39 40 40 38 38 40 42 43 45
38 38 38 36 34 32 31 34 40 39 39 38 36 33 32 32 33 33 33 34 36 36 38 40 41 43 44 41 42 41 41 42 44 42 43 44 45 44 43 43 43 45 47 49
34 33 31 31 30 31 32 35 33 35 36 34 31 29 29 30 31 31 30 33 35 36 38 40 42 42 44 45 43 43 42 43 44 45 46 46 45 44 44 45 46 48 49 52
31 32 30 29 30 32 32 29 28 30 32 29 27 26 26 26 26 26 28 31 32 36 39 40 42 42 44 46 46 45 43 44 45 47 48 49 49 48 47 48 50 51 54 57
30 30 31 29 28 28 29 27 24 26 26 24 22 23 21 21 22 22 24 27 30 34 37 39 41 43 44 45 47 46 45 45 46 48 51 51 51 50 51 52 54 55 58 62
29 28 28 29 28 27 26 26 24 22 22 20 18 16 15 15 17 19 22 25 28 31 35 38 41 43 44 45 47 48 47 47 48 51 54 54 53 53 53 55 56 57 60 65
28 26 26 26 27 27 25 22 20 16 15 14 13 11 11 12 14 16 20 24 27 31 34 36 39 42 45 46 47 49 48 48 49 52 55 55 54 55 55 57 58 60 63 68
27 26 24 24 24 22 20 17 14 10 7 8 8 7 8 9 11 15 19 23 27 32 35 37 39 42 45 47 48 49 49 49 49 52 56 57 55 56 57 58 60 62 66 70
27 24 21 20 20 18 16 14 12 9 5 1 4 5 7 9 13 16 20 24 28 32 35 38 40 42 45 47 48 49 49 48 50 54 57 58 56 57 58 59 59 62 66 71
27 23 23 21 18 15 13 10 8 5 3 1 4 7 9 12 14 18 21 25 28 31 34 37 39 41 43 46 48 49 49 49 50 55 58 59 59 61 61 60 62 64 68 71
32 30 26 20 16 13 11 8 6 5 3 2 4 6 8 11 15 19 22 25 28 31 34 36 38 41 43 46 48 49 48 49 52 56 59 59 60 61 61 60 61 64 67 72
Wind_Direction
295 302 301 295 295 297 305 308 310 311 308 308 305 304 301 296 292 288 287 289 293 296 298 301 301 301 301 301 302 302 300 300 299 299 300 304 302 306 310 308 312 322 325 325
295 301 300 299 298 301 308 307 306 308 306 305 303 302 296 293 291 292 294 297 301 301 299 300 302 304 306 301 304 306 307 309 307 305 308 307 309 306 304 311 327 328 330 333
297 302 303 304 303 306 307 307 309 306 303 301 303 299 298 295 296 302 304 302 300 296 301 304 308 315 315 316 315 305 302 305 309 314 314 313 305 304 316 324 325 332 337 343
291 297 298 302 304 305 304 307 308 305 303 300 299 303 293 297 306 302 296 293 310 319 327 324 319 315 316 319 325 329 324 320 324 327 324 319 320 325 330 328 326 329 334 345
285 293 301 303 303 307 309 312 308 307 307 303 299 299 293 295 297 314 317 332 333 330 327 324 323 323 324 308 326 338 342 344 354 1 351 342 337 339 340 338 333 332 339 342
286 294 300 304 308 310 311 306 302 304 306 301 301 307 305 309 316 322 326 330 328 326 328 325 324 324 330 321 325 360 12 24 13 4 13 15 10 9 10 6 0 359 4 2
291 298 303 309 309 311 311 299 302 312 309 305 311 319 327 329 326 325 331 336 336 348 351 353 8 32 51 48 11 6 27 53 55 48 46 44 43 45 45 42 38 36 32 30
297 304 308 311 311 309 304 315 318 316 318 322 331 336 339 342 355 11 15 11 16 31 48 57 54 44 46 33 5 78 72 60 52 49 47 45 43 43 40 36 35 35 30 27
305 308 313 313 309 311 322 324 329 328 340 348 2 22 36 43 48 51 56 62 67 65 61 52 54 76 75 75 75 66 62 61 53 43 42 43 40 31 27 28 26 20 21 23
306 313 313 310 319 326 343 345 4 23 46 58 61 62 63 65 72 78 75 70 70 76 77 72 74 72 70 71 69 60 53 48 35 31 33 29 24 19 19 18 19 16 14 16
317 314 316 324 340 355 30 61 74 77 67 68 76 81 76 76 79 83 85 82 82 80 78 75 72 69 65 62 58 52 45 37 31 28 23 18 17 18 18 18 16 15 15 13
315 324 333 360 42 83 89 94 84 76 79 84 84 85 84 90 92 91 88 84 82 79 76 73 68 62 57 54 49 44 40 36 34 34 29 24 20 18 16 15 14 12 12 12
333 352 18 87 101 101 98 90 89 92 91 95 92 98 99 96 93 90 86 79 75 72 68 66 64 60 53 50 50 45 43 39 34 31 30 26 23 21 20 17 14 12 9 7
5 69 93 106 104 102 98 94 95 98 100 104 103 101 98 95 90 84 81 77 72 68 64 60 57 54 51 50 52 48 47 45 43 40 36 32 29 24 19 14 10 7 4 0
78 94 103 107 110 109 104 103 107 107 106 105 104 99 94 89 86 82 78 73 68 65 61 55 53 51 49 48 47 46 46 44 42 39 36 32 29 25 20 15 11 7 3 0
98 107 110 110 112 111 111 111 109 110 109 107 100 96 91 87 83 79 74 70 66 62 58 55 51 50 47 45 43 42 40 38 37 35 32 27 24 20 16 12 9 5 359 359
97 102 108 110 113 116 113 113 113 115 111 103 99 96 90 87 83 77 72 67 63 58 55 52 48 46 43 41 39 37 36 34 32 29 27 24 20 17 14 10 8 5 0 357
115 115 115 114 112 112 113 116 119 114 108 104 102 98 92 86 77 71 67 62 58 54 49 48 44 43 40 37 35 33 30 28 27 25 22 20 17 16 12 9 5 2 359 355
125 122 121 120 117 118 118 121 119 113 111 108 104 98 90 82 75 68 63 57 52 48 44 41 40 37 35 32 31 28 25 23 21 19 16 14 13 12 7 4 2 359 356 353
132 129 129 127 125 127 128 124 121 118 114 111 106 98 88 80 71 63 55 50 45 42 39 36 35 32 30 27 25 23 20 18 17 13 11 10 9 8 5 3 0 358 354 352
139 136 134 133 134 132 134 136 129 124 118 114 108 97 87 77 64 54 46 40 37 33 31 29 28 27 25 22 20 18 14 11 10 9 7 7 6 4 3 0 358 356 353 351
147 144 140 137 136 137 136 133 133 127 120 118 108 95 84 69 52 41 35 30 27 25 25 23 21 20 19 18 16 13 10 6 5 4 3 3 2 1 1 358 356 354 352 351
158 153 147 143 142 140 141 140 138 130 118 115 106 95 77 56 39 28 23 19 16 16 15 14 13 12 12 13 11 9 7 2 0 359 358 360 0 360 360 357 355 354 351 351
172 166 162 154 150 148 151 155 153 146 123 97 93 79 60 38 22 12 9 7 6 7 6 5 5 5 4 5 6 6 3 359 357 356 356 357 359 360 357 356 354 352 352 351
184 178 169 168 166 165 162 162 165 173 183 113 52 42 26 11 2 357 353 355 358 359 359 358 358 358 358 359 1 2 0 356 354 353 354 357 357 359 356 355 354 352 352 353
188 186 187 189 187 181 181 181 178 176 187 263 339 348 351 353 352 349 350 350 350 351 352 352 352 353 354 353 356 358 357 353 352 351 354 355 356 356 355 355 353 353 353 354
196 198 202 199 195 195 197 204 208 226 249 308 338 341 348 346 342 342 344 344 343 345 346 346 349 349 351 351 353 354 352 350 349 350 353 353 354 354 354 354 353 353 354 354
Height
5722 5720 5717 5714 5712 5710 5706 5702 5699 5695 5691 5687 5683 5679 5675 5671 5666 5661 5657 5652 5647 5643 5638 5634 5630 5626 5622 5618 5614 5611 5607 5604 5601 5598 5594 5591 5588 5585 5581 5577 5572 5566 5558 5551
5718 5716 5713 5711 5708 5706 5702 5698 5694 5689 5686 5681 5677 5673 5668 5663 5657 5653 5648 5643 5638 5632 5628 5625 5620 5616 5613 5610 5607 5604 5600 5596 5593 5590 5588 5585 5582 5578 5575 5571 5566 5560 5553 5546
5714 5712 5709 5707 5704 5701 5697 5693 5689 5685 5681 5675 5670 5665 5659 5653 5649 5644 5639 5633 5629 5624 5621 5617 5613 5609 5606 5603 5600 5597 5593 5591 5588 5585 5583 5580 5577 5574 5570 5566 5561 5556 5549 5541
5710 5708 5706 5703 5700 5695 5691 5687 5682 5678 5674 5667 5661 5657 5651 5646 5641 5637 5631 5626 5622 5618 5614 5611 5608 5604 5601 5599 5596 5593 5590 5587 5585 5582 5579 5576 5574 5570 5565 5561 5557 5552 5545 5537
5707 5704 5702 5698 5694 5690 5685 5680 5674 5668 5663 5658 5654 5651 5647 5641 5635 5630 5626 5622 5618 5614 5610 5606 5603 5599 5597 5595 5594 5591 5588 5585 5583 5581 5578 5575 5571 5566 5562 5557 5553 5547 5541 5534
5702 5699 5696 5692 5688 5683 5678 5673 5667 5663 5658 5653 5649 5644 5639 5635 5631 5627 5623 5620 5616 5612 5607 5603 5600 5597 5594 5593 5593 5591 5588 5586 5583 5581 5577 5573 5569 5564 5560 5555 5551 5545 5538 5532
5697 5693 5690 5686 5680 5676 5672 5670 5661 5656 5653 5648 5643 5640 5635 5631 5628 5624 5620 5617 5614 5610 5606 5602 5599 5597 5595 5594 5593 5591 5589 5586 5583 5581 5578 5574 5570 5566 5562 5557 5552 5546 5539 5532
5692 5688 5685 5679 5673 5669 5664 5658 5654 5650 5646 5643 5639 5636 5633 5629 5625 5622 5619 5616 5614 5611 5608 5605 5602 5599 5597 5596 5594 5592 5591 5589 5586 5583 5580 5576 5572 5568 5564 5559 5554 5547 5540 5533
5689 5683 5677 5671 5665 5661 5657 5653 5650 5646 5643 5640 5638 5635 5632 5630 5627 5624 5622 5620 5618 5615 5612 5610 5607 5603 5601 5599 5598 5597 5596 5593 5590 5587 5583 5579 5576 5571 5566 5561 5555 5549 5542 5535
5683 5677 5670 5664 5659 5655 5652 5649 5646 5644 5643 5641 5640 5638 5636 5634 5631 5629 5628 5625 5623 5621 5619 5616 5613 5611 5609 5607 5605 5603 5600 5597 5593 5590 5586 5582 5578 5573 5568 5563 5558 5551 5544 5537
5677 5670 5664 5659 5655 5653 5650 5648 5648 5647 5647 5645 5644 5643 5641 5639 5637 5636 5634 5632 5631 5628 5626 5624 5621 5619 5616 5614 5611 5607 5604 5600 5596 5592 5588 5584 5579 5575 5570 5565 5559 5553 5546 5538
5671 5664 5660 5657 5654 5652 5652 5652 5652 5652 5651 5650 5650 5649 5648 5646 5645 5644 5643 5641 5639 5637 5635 5632 5629 5626 5622 5619 5615 5611 5606 5602 5597 5593 5589 5585 5580 5576 5571 5565 5559 5553 5546 5538
5666 5661 5659 5657 5656 5657 5657 5658 5657 5657 5657 5656 5656 5656 5656 5654 5653 5652 5651 5649 5647 5645 5642 5639 5635 5632 5628 5624 5619 5615 5610 5605 5600 5595 5590 5585 5580 5576 5571 5566 5559 5552 5545 5538
5664 5663 5662 5661 5662 5663 5663 5663 5664 5663 5663 5664 5664 5664 5664 5663 5662 5660 5659 5657 5655 5652 5649 5646 5642 5638 5634 5629 5624 5619 5615 5610 5604 5599 5594 5588 5583 5578 5572 5566 5559 5552 5545 5537
5666 5664 5667 5667 5668 5670 5669 5670 5670 5671 5672 5673 5674 5673 5672 5671 5670 5668 5666 5664 5661 5658 5655 5652 5648 5643 5639 5634 5629 5624 5619 5614 5609 5604 5598 5593 5586 5580 5574 5567 5560 5553 5544 5536
5671 5670 5672 5673 5675 5676 5677 5678 5678 5679 5680 5681 5680 5681 5679 5678 5677 5675 5673 5671 5668 5665 5661 5657 5653 5648 5644 5639 5634 5629 5624 5619 5613 5608 5601 5595 5588 5581 5574 5567 5560 5552 5543 5536
5680 5677 5679 5680 5682 5684 5684 5685 5685 5686 5687 5687 5686 5686 5686 5684 5683 5682 5680 5677 5674 5671 5666 5661 5657 5653 5648 5643 5639 5633 5628 5622 5616 5610 5603 5597 5589 5583 5575 5568 5560 5552 5544 5535
5682 5685 5685 5688 5690 5691 5691 5691 5693 5693 5692 5692 5692 5692 5691 5690 5689 5688 5685 5682 5679 5675 5671 5666 5662 5657 5652 5647 5642 5637 5631 5625 5618 5611 5604 5598 5591 5583 5575 5567 5559 5550 5541 5531
5687 5689 5691 5692 5694 5695 5696 5698 5699 5698 5697 5697 5696 5697 5696 5695 5694 5692 5689 5687 5683 5679 5676 5671 5666 5661 5656 5650 5645 5639 5633 5627 5620 5613 5606 5598 5590 5583 5574 5566 5557 5547 5537 5527
5691 5691 5694 5696 5697 5698 5700 5702 5703 5702 5701 5701 5701 5701 5700 5699 5697 5696 5693 5690 5687 5683 5679 5675 5670 5665 5659 5653 5647 5641 5635 5628 5622 5614 5606 5598 5590 5582 5573 5564 5554 5544 5533 5522
5694 5695 5697 5699 5700 5702 5702 5704 5706 5705 5704 5704 5704 5704 5703 5702 5700 5698 5696 5693 5690 5686 5682 5678 5673 5667 5662 5656 5649 5643 5636 5629 5622 5614 5607 5598 5589 5580 5570 5561 5551 5540 5529 5517
5696 5698 5700 5701 5703 5704 5706 5707 5708 5707 5707 5706 5707 5707 5705 5704 5702 5700 5698 5695 5692 5688 5684 5680 5675 5669 5664 5657 5651 5644 5636 5629 5621 5613 5605 5595 5587 5578 5569 5559 5548 5537 5525 5512
5698 5700 5702 5704 5705 5706 5707 5709 5709 5710 5710 5709 5709 5708 5707 5706 5704 5702 5700 5697 5693 5690 5685 5681 5676 5671 5665 5659 5652 5645 5637 5629 5620 5612 5604 5594 5585 5575 5566 5555 5544 5533 5521 5508
5699 5702 5703 5705 5707 5708 5709 5710 5711 5712 5712 5712 5711 5709 5708 5707 5705 5703 5700 5697 5694 5690 5686 5681 5676 5671 5665 5659 5652 5645 5637 5628 5620 5611 5602 5593 5584 5573 5563 5552 5541 5529 5516 5503
5699 5702 5705 5706 5708 5709 5710 5710 5711 5712 5713 5713 5712 5710 5709 5707 5706 5703 5700 5697 5694 5690 5686 5681 5676 5670 5664 5658 5651 5644 5636 5627 5618 5609 5601 5591 5581 5571 5561 5550 5539 5526 5514 5500
5697 5702 5704 5705 5707 5709 5710 5711 5712 5712 5713 5713 5712 5711 5709 5707 5705 5702 5699 5697 5693 5689 5685 5681 5675 5670 5663 5656 5649 5642 5634 5625 5617 5607 5598 5588 5578 5567 5557 5546 5535 5523 5511 5498
5693 5697 5700 5703 5706 5707 5709 5710 5711 5712 5712 5712 5711 5710 5709 5706 5704 5701 5698 5695 5692 5688 5684 5679 5674 5668 5661 5655 5648 5640 5632 5623 5614 5605 5595 5585 5576 5565 5555 5544 5533 5522 5509 5496